TimeCST,TemperatureF,Dew PointF,Humidity,Sea Level PressureIn,VisibilityMPH,Wind Direction,Wind SpeedMPH,Gust SpeedMPH,PrecipitationIn,Events,Conditions,WindDirDegrees,DateUTC
12:56 AM,8.1,1.0,73,30.17,10.0,South,12.7,-,N/A,,Clear,170,2012-01-18 06:56:00
1:56 AM,8.1,1.0,73,30.14,10.0,South,13.8,-,N/A,,Clear,180,2012-01-18 07:56:00
2:56 AM,8.1,1.9,76,30.09,10.0,South,12.7,-,N/A,,Clear,180,2012-01-18 08:56:00
3:56 AM,9.0,3.0,77,30.04,10.0,South,11.5,-,N/A,,Clear,170,2012-01-18 09:56:00
4:56 AM,10.9,3.9,73,29.99,10.0,South,13.8,-,N/A,,Clear,180,2012-01-18 10:56:00
5:56 AM,10.4,5.0,79,29.86,10.0,South,11.5,-,N/A,,Clear,180,2012-01-18 11:56:00
6:56 AM,12.0,5.0,73,29.93,10.0,South,15.0,-,N/A,,Clear,190,2012-01-18 12:56:00
7:56 AM,10.9,5.0,77,29.92,10.0,South,12.7,-,N/A,,Clear,180,2012-01-18 13:56:00
8:56 AM,14.0,6.1,71,29.91,10.0,SSW,11.5,-,N/A,,Clear,200,2012-01-18 14:56:00
9:56 AM,17.1,8.1,68,29.89,10.0,SSW,10.4,-,N/A,,Clear,200,2012-01-18 15:56:00
10:56 AM,19.9,10.0,65,29.88,10.0,SW,10.4,-,N/A,,Clear,220,2012-01-18 16:56:00
11:56 AM,21.9,10.9,63,29.84,10.0,SW,6.9,16.1,N/A,,Clear,230,2012-01-18 17:56:00
12:56 PM,26.1,12.0,55,29.81,10.0,SW,9.2,-,N/A,,Clear,230,2012-01-18 18:56:00
1:56 PM,30.0,14.0,51,29.80,10.0,West,11.5,17.3,N/A,,Clear,270,2012-01-18 19:56:00
2:56 PM,26.6,12.2,55,29.73,10.0,WNW,15.0,21.9,N/A,,Partly Cloudy,300,2012-01-18 20:56:00
3:56 PM,21.9,12.9,68,29.85,10.0,NW,18.4,-,N/A,,Mostly Cloudy,310,2012-01-18 21:56:00
4:43 PM,17.6,10.4,73,29.84,1.5,NW,19.6,26.5,0.00,Snow,Light Snow,310,2012-01-18 22:43:00
4:56 PM,16.0,9.0,74,29.93,1.5,NW,21.9,27.6,0.00,Snow,Light Snow,310,2012-01-18 22:56:00
5:10 PM,14.0,8.6,79,29.85,1.5,NW,21.9,27.6,0.00,Snow,Light Snow,320,2012-01-18 23:10:00
5:17 PM,14.0,8.6,79,29.85,3.0,NW,19.6,27.6,0.00,Snow,Light Snow,320,2012-01-18 23:17:00
5:25 PM,14.0,6.8,73,29.85,4.0,NNW,18.4,27.6,0.00,Snow,Light Snow,330,2012-01-18 23:25:00
5:56 PM,-9999,60.8,N/A,29.96,-9999.0,North,-9999.0,-,0.00,,Unknown,0,2012-01-18 23:56:00
6:56 PM,10.0,1.9,70,29.98,10.0,NNW,16.1,25.3,N/A,,Overcast,330,2012-01-19 00:56:00
7:06 PM,8.6,1.4,73,29.90,6.0,NNW,16.1,-,N/A,,Haze,330,2012-01-19 01:06:00
7:38 PM,8.6,-0.4,67,29.92,10.0,NNW,19.6,-,N/A,,Overcast,340,2012-01-19 01:38:00
7:56 PM,7.0,-2.9,64,30.04,10.0,NNW,19.6,28.8,N/A,,Overcast,340,2012-01-19 01:56:00
8:49 PM,3.2,-7.6,61,29.96,10.0,NNW,18.4,-,N/A,,Mostly Cloudy,340,2012-01-19 02:49:00
8:56 PM,3.0,-7.1,63,30.06,10.0,NNW,19.6,-,N/A,,Overcast,340,2012-01-19 02:56:00
9:56 PM,1.0,-9.0,63,30.08,10.0,North,18.4,24.2,N/A,,Overcast,350,2012-01-19 03:56:00
10:56 PM,-0.0,-9.9,63,30.09,10.0,North,15.0,-,N/A,,Overcast,350,2012-01-19 04:56:00
11:56 PM,-0.9,-9.9,66,30.11,9.0,North,10.4,-,0.00,Snow,Light Snow,350,2012-01-19 05:56:00